Погода в Глогуве

Польша     51°39′32″N   16°05′15″E
темп.,
°C
ветер,
м/с
пор.,
м/с
влажн.,
%
обл.,
%
осадки,
мм/ч
давл.,
гПа
погр.,
м
25 февраля, чт
чт2501:00+9зюз33800 0.0 103140
04:00+8юз33810 0.0 103049
07:00+7ююз23820 0.0 102930
10:00+13юз35640 0.0 1028240
13:00+17юз36550 0.0 1027392
16:00+16зюз37610 0.0 1026291
19:00+11зюз510740 0.0 1027216
22:00+10зюз49810 0.0 1028171
26 февраля, пт
пт2601:00+8зюз36910 0.0 1028120
04:00+7з349529 0.0 102891
07:00+8сз369664 0.2 1029177
10:00+8зсз3796100 0.6 1029341
13:00+8з5978100 0.8 1029626
16:00+9з5871100 0.2 10291003
19:00+5з4108067 0.2 1030251
22:00+4з4108212 0.0 1030304
27 февраля, сб
сб2701:00+3з5118732 0.0 1031345
04:00+2зсз511931 0.0 1031429
07:00+3зсз599139 0.0 1032612
10:00+3сз4787100 0.0 1033611
13:00+5зсз568098 0.0 1034627
16:00+6зсз577775 0.0 1033659
19:00+4зсз478286 0.0 1035520
22:00+2з379321 0.0 1035172
28 февраля, вс
вс2801:00+1зсз239626 0.0 103676
04:000з23968 0.0 103559
07:000з35988 0.0 1035143
10:00+3зсз348877 0.0 1035307
13:00+7сз236555 0.0 1035710
16:00+7сз23620 0.0 1034834
19:00+4ссз11820 0.0 103422
22:00+2сз11872 0.0 103622
1 марта, пн
пн101:00+2юв018830 0.0 103622
04:00+2ююв128938 0.0 103622
07:00+1юв228819 0.0 103722
10:00+6юв23680 0.0 1038350
13:00+8юв33550 0.0 1038888
16:00+8вюв34580 0.0 1038853
19:00+4вюв34760 0.0 103880
22:00+3юв38830 0.0 1039178